STARLINK-6043, 56464

Orbit data source: Space-Track

STARLINK-6043, 56464 is a payload satellite owned by SpaceX/Seattle (US) in LEO that was launched on Wed, 10 May 2023 UTC via an FALCON 9 launch vehicle from the Air Force Western Test Range (AFWTR). Payload-class satellites include a variety of spacecraft equipped with specific instruments for various scientific and technological missions. These include communications satellites like Starlink; space stations such as the ISS; scientific satellites like the Hubble; Earth observation satellites from companies like Planet Labs, Umbra, and HawkEye 360; GPS; miniature CubeSats for education and research; and military/defense satellites.

Loading next visibility...
Identifier
56464, 2023-064S
Orbit
LEO
Country
Flag of USUS
Related business
Manufacturer
SpaceX/Seattle
Mission
Operational Commercial Communications
Bus & Motor
STARLINK, Unknown motor
Mass
305 kg wet, ~290 kg dry
Launch date (UTC)
2023-05-10 (3 years ago)
Launch vehicle
FALCON 9
Launch site
Air Force Western Test Range (AFWTR)
Object type
Payload
Rocket body
Debris
Shape & HBR
Box + 1 Pan, 10.1 m
Radar Cross Section
11.087 m², Large (>1 m²)

Expand to show TLE details & history
Last TLE update: 2 days ago

TLE from 2 days ago
0 STARLINK-6043
1 56464U 23064S   26171.47041234  .00000180  00000-0  22884-4 0  9999
2 56464  69.9986 245.2231 0003457 268.9266  91.1497 14.98328471170647
Epoch: 2026-06-20T11:17Z
TLE epoch observation values (Epoch: 2026-06-20T11:17:23.626Z)
Latitude
-0°
Longitude
167.19008°
Altitude
574.533 km
Speed
7.574 km/s
True Right ascension
16h 20m 53s
True Declination
0° 00' 00"
Sunlit
Object was in full shadow at epoch
Visualization orbit readout
Latitude
Unknown
Longitude
Unknown
Altitude
Unknown
Speed
Unknown
Apparent Right ascension
Unknown
Apparent Declination
Unknown
Sunlit
N/A
Visualization observer readout
Local Sidereal Time
00:34:49
Azimuth
Unknown
Elevation
Unknown
Doppler factor
Unknown
Orbital elements
Apogee altitude
572.411 km
Perigee altitude
567.607 km
Semi-major axis
6,948.146 km
Eccentricity
0.00035
Inclination
69.9986°
RAAN
245.2231°
Arg. of periapsis
268.9266°
True anomaly
91.18931°
Mean anomaly
91.1497°
Eccentric anomaly
91.1695°
Mean motion
3.74748 °/min
Orbital period
96.06 mins
BSTAR
0.000022884
Loading maneuver chart data...
Computing Atmospheric mass density...
Loading historical data...
Loading historical data...
Loading historical data...
Loading historical data...
Loading historical data...
Loading historical data...
Loading historical data...

Documentation

Showing up to 5 results
|